Showing default

COSMOS 2090, 20735

Orbit data source: Space-Track

COSMOS 2090, 20735 is a payload satellite owned by UNKS (CIS) in LEO that was launched on Wed, 08 Aug 1990 UTC via a TSIKLON-3 launch vehicle from the Plesetsk Missile And Space Complex (PKMTR). Payload-class satellites include a variety of spacecraft equipped with specific instruments for various scientific and technological missions. These include communications satellites like Starlink; space stations such as the ISS; scientific satellites like the Hubble; Earth observation satellites from companies like Planet Labs, Umbra, and HawkEye 360; GPS; miniature CubeSats for education and research; and military/defense satellites.

Loading next visibility...
Identifier
20735, 1990-070A
Orbit
LEO
Country
Flag of CISCIS
Related business
Manufacturer
NPO PM
Mission
Defense Communications
Bus & Motor
STRELA-3, Unknown motor
Mass
225 kg wet, 225 kg dry
Launch date (UTC)
1990-08-08 (35 years ago)
Launch vehicle
TSIKLON-3
Launch site
Plesetsk Missile And Space Complex (PKMTR)
Object type
Payload
Rocket body
Debris
Shape & HBR
Cyl, 0.8 m
Radar Cross Section
1.257 m², Large (>1 m²)

Expand to show TLE details & history
Last TLE update: 12 hours ago

TLE from 12 hours ago
0 COSMOS 2090
1 20735U 90070A   25311.25338563  .00000034  00000-0  12523-3 0  9993
2 20735  82.5683  54.8395 0014079 205.7756 221.9131 12.65358009627865
Epoch: 2025-11-07T06:04Z
TLE epoch observation values (Epoch: 2025-11-07T06:04:52.518Z)
Latitude
66.51979°
Longitude
-65.69419°
Altitude
1,420.54 km
Speed
7.153 km/s
True Right ascension
04h 48m 53s
True Declination
66° 24' 16"
Sunlit
Object was in full shadow at epoch
Visualization orbit readout
Latitude
Unknown
Longitude
Unknown
Altitude
Unknown
Speed
Unknown
Apparent Right ascension
Unknown
Apparent Declination
Unknown
Sunlit
N/A
Visualization observer readout
Local Sidereal Time
14:34:26
Azimuth
Unknown
Elevation
Unknown
Doppler factor
Unknown
Orbital elements
Apogee altitude
1,409.172 km
Perigee altitude
1,387.275 km
Semi-major axis
7,776.361 km
Eccentricity
0.00141
Inclination
82.5683°
RAAN
54.8395°
Arg. of periapsis
205.7756°
True anomaly
221.80547°
Mean anomaly
221.9131°
Eccentric anomaly
221.85927°
Mean motion
3.16504 °/min
Orbital period
113.74 mins
BSTAR
0.00012523
Loading maneuver chart data...
Computing Atmospheric mass density...
Loading historical data...
Loading historical data...
Loading historical data...
Loading historical data...
Loading historical data...
Loading historical data...
Loading historical data...

Documentation

Showing up to 5 results
|